Tracking 20066 objects as of 6-Dec-2019
HD Live streaming from Space Station
objects crossing your sky now

OKEAN O

Track OKEAN O now!
10-day predictions
OKEAN O is classified as:


NORAD ID: 25860
Int'l Code: 1999-039A
Perigee: 645.8 km
Apogee: 648.4 km
Inclination: 98.2 °
Period: 97.5 minutes
Semi major axis: 7018 km
RCS: 19.8052 m2 (large)
Launch date: July 17, 1999
Source: Commonwealth of Independent States (former USSR) (CIS)
Launch site: TYURATAM MISSILE AND SPACE COMPLEX (TTMTR)
aabbcc
Your satellite tracking list
Your tracking list is empty




NASA's NSSDC Master Catalog

Two Line Element Set (TLE):
1 25860U 99039A   19340.50955553  .00000034  00000-0  12521-4 0  9997
2 25860  98.2242 351.0221 0001787 102.6794 257.4615 14.76635299 96980
Source of the keplerian elements: AFSPC